TimeMST,TemperatureF,Dew PointF,Humidity,Sea Level PressureIn,VisibilityMPH,Wind Direction,Wind SpeedMPH,Gust SpeedMPH,PrecipitationIn,Events,Conditions,WindDirDegrees,DateUTC
12:53 AM,33.1,19.9,59,30.22,10.0,SW,9.2,-,N/A,,Partly Cloudy,220,2012-11-13 07:53:00
1:53 AM,33.1,19.0,56,30.21,10.0,WSW,15.0,-,N/A,,Partly Cloudy,240,2012-11-13 08:53:00
2:53 AM,32.0,18.0,56,30.23,10.0,SW,12.7,-,N/A,,Partly Cloudy,230,2012-11-13 09:53:00
3:53 AM,28.9,18.0,64,30.23,10.0,SW,12.7,-,N/A,,Mostly Cloudy,230,2012-11-13 10:53:00
4:53 AM,28.9,17.1,61,30.24,10.0,WSW,17.3,-,N/A,,Partly Cloudy,240,2012-11-13 11:53:00
5:53 AM,30.0,17.1,59,30.25,10.0,WSW,20.7,-,N/A,,Partly Cloudy,240,2012-11-13 12:53:00
6:53 AM,28.9,18.0,64,30.25,10.0,WSW,20.7,-,N/A,,Scattered Clouds,250,2012-11-13 13:53:00
7:53 AM,30.9,18.0,59,30.26,10.0,WSW,17.3,-,N/A,,Mostly Cloudy,240,2012-11-13 14:53:00
8:53 AM,32.0,19.9,61,30.27,10.0,WSW,18.4,-,N/A,,Mostly Cloudy,240,2012-11-13 15:53:00
9:53 AM,33.1,21.9,64,30.27,10.0,SW,11.5,-,N/A,,Scattered Clouds,220,2012-11-13 16:53:00
10:53 AM,37.0,23.0,57,30.27,10.0,SW,11.5,-,N/A,,Partly Cloudy,220,2012-11-13 17:53:00
11:53 AM,39.9,24.1,53,30.24,10.0,WSW,15.0,-,N/A,,Partly Cloudy,240,2012-11-13 18:53:00
12:53 PM,43.0,27.0,53,30.23,10.0,WSW,10.4,-,N/A,,Partly Cloudy,240,2012-11-13 19:53:00
1:53 PM,45.0,26.1,48,30.21,10.0,SSW,13.8,-,N/A,,Partly Cloudy,210,2012-11-13 20:53:00
2:53 PM,45.0,25.0,46,30.21,10.0,SW,11.5,-,N/A,,Partly Cloudy,230,2012-11-13 21:53:00
3:53 PM,42.1,27.0,55,30.22,10.0,SW,8.1,-,N/A,,Partly Cloudy,230,2012-11-13 22:53:00
4:53 PM,39.0,25.0,57,30.23,10.0,WSW,10.4,-,N/A,,Scattered Clouds,240,2012-11-13 23:53:00
5:53 PM,37.9,24.1,57,30.22,10.0,WSW,11.5,-,N/A,,Scattered Clouds,240,2012-11-14 00:53:00
6:53 PM,37.9,24.1,57,30.22,10.0,WSW,12.7,-,N/A,,Scattered Clouds,250,2012-11-14 01:53:00
7:53 PM,37.9,24.1,57,30.21,10.0,SW,9.2,-,N/A,,Scattered Clouds,230,2012-11-14 02:53:00
8:53 PM,37.9,24.1,57,30.21,10.0,WSW,13.8,-,N/A,,Overcast,240,2012-11-14 03:53:00
9:53 PM,37.0,24.1,59,30.19,10.0,SW,13.8,-,N/A,,Mostly Cloudy,230,2012-11-14 04:53:00
10:53 PM,36.0,24.1,62,30.17,10.0,SW,13.8,-,N/A,,Partly Cloudy,230,2012-11-14 05:53:00
11:53 PM,37.0,23.0,57,30.16,10.0,WSW,13.8,-,N/A,,Clear,240,2012-11-14 06:53:00